Weather in Karabula

Russia / Krasnoyarsk Krai     58°01′58″N   97°23′22″E
temp.,
°C
wind,
m/s
gust,
m/s
humid.,
%
clouds,
%
prec.,
mm/h
press.,
hPa
HPBL,
m
25 may, wed
wed2501:00+12w116114 0.0 102110
04:00+10sw11675 0.0 102010
07:00+16wsw12522 0.0 1019194
10:00+22w233339 0.0 10171295
13:00+25wsw23260 0.0 10142108
16:00+26w352633 0.0 10112527
19:00+23wnw483823 0.0 1010497
22:00+13n3118236 0.2 1012567
26 may, thu
thu2601:00+11nw27915 0.2 1011357
04:00+10nw49930 0.0 1012411
07:00+12nnw587365 0.0 1013763
10:00+13n576227 0.2 10141195
13:00+17nne463689 0.4 10142472
16:00+18n363088 0.0 10142680
19:00+17n353926 0.0 1014719
22:00+10ne116715 0.0 101610
27 may, fri
fri2701:00+8e118036 0.1 101510
04:00+8ne1293100 1.1 101552
07:00+10e248398 2.0 1016440
10:00+9e3787100 2.1 1016813
13:00+14ene464087 2.5 10152288
16:00+16ne562982 0.0 10152702
19:00+14nne473531 0.0 10151089
22:00+7ne27585 0.0 1017129
28 may, sat
sat2801:00+5ne22634 0.0 101922
04:00+3nne11695 0.0 101911
07:00+9ne23481 0.0 1020402
10:00+13ene23305 0.0 10192100
13:00+16ene22265 0.0 10172280
16:00+17ene12255 0.0 10152290
19:00+15e113440 0.0 1014106
22:00+9e1149100 0.0 101410
29 may, sun
sun2901:00+7ese115298 0.0 101410
04:00+5ese1157100 0.0 101310
07:00+11ese124581 0.0 1012210
10:00+17se11285 0.0 10112183
13:00+20ene012551 0.0 10092699
16:00+19ne132435 0.0 10082774
19:00+18ese11366 0.0 100752
22:00+11s11425 0.0 100810